Regional Weather Roundup
Issued by NWS

Home | Current Version | Previous Version | Text Only | Print | Product List | Glossary On
Versions: 1 2 3 4 5 6 7 8 9 10 11 12 13 14 15 16 17 18 19 20 21 22 23 24 25 26 27
000
ASUS46 KPQR 221110
RWROR

OREGON REGIONAL WEATHER ROUNDUP
NATIONAL WEATHER SERVICE PORTLAND OR
300 AM PST WED NOV 22 2017

NOTE: "FAIR" INDICATES FEW OR NO CLOUDS BELOW 12,000 FEET WITH
NO SIGNIFICANT WEATHER AND/OR OBSTRUCTIONS TO VISIBILITY.

ORZ001>013-221200-
NORTHWEST OREGON


CITY           SKY/WX    TMP DP  RH WIND       PRES   REMARKS
ASTORIA        LGT RAIN  60  57  89 S15G36    29.95S
NEWPORT        LGT RAIN  59  57  94 S17G26    30.02S
PORTLAND       CLOUDY    50  48  93 E14       30.01F
VANCOUVER WA   CLOUDY    50  49  96 E6        30.01F
SCAPPOOSE      CLOUDY    51  50  96 CALM      30.01S
HILLSBORO      CLOUDY    56  55  97 NE3       30.00S
AURORA         LGT RAIN  57  57 100 CALM      30.02S
MCMINNVILLE    LGT RAIN  57  57 100 E3        30.01S FOG
SALEM          LGT RAIN  58  56  93 CALM      30.01R FOG
CORVALLIS      CLOUDY    57  56  96 CALM      30.02R
EUGENE         CLOUDY    55  55 100 SW6       30.03R
$$

ORZ021-028-221200-
SOUTHWEST OREGON


CITY           SKY/WX    TMP DP  RH WIND       PRES   REMARKS
NORTH BEND     CLOUDY    57  57 100 SE3       30.01R FOG
ROSEBURG       CLOUDY    69  53  56 S9        30.01S
SEXTON SUMMIT  CLOUDY    52  46  80 SE22G30   30.11F
GRANTS PASS    CLOUDY    54  52  94 E7        30.12F FOG
MEDFORD        CLOUDY    54  54 100 CALM      30.14R
$$

ORZ014>016-041-221200-
COLUMBIA GORGE


CITY           SKY/WX    TMP DP  RH WIND       PRES   REMARKS
TROUTDALE      CLOUDY    50  46  86 E13       30.03R
HOOD RIVER     CLOUDY    43  43 100 CALM      30.11R FOG
THE DALLES     CLOUDY    46  45  96 CALM      30.12R FOG
$$

ORZ029>031-041-044-049-050-061>064-502-503-505>511-221200-
EASTERN OREGON


CITY           SKY/WX    TMP DP  RH WIND       PRES   REMARKS
MADRAS         CLOUDY    63  63 100 S12       30.10R
REDMOND        MOCLDY    55  47  74 S8        30.14R
BEND           MOCLDY    54  46  76 S6        30.17R
PRINEVILLE     CLOUDY    59  46  63 S10       30.15R
KLAMATH FALLS  PTCLDY    50  43  77 S12       30.24R
LAKEVIEW       CLOUDY    47  40  76 VRB6      30.29S
HERMISTON      CLOUDY    45  45 100 CALM      30.10R
PENDLETON      LGT RAIN  44  44 100 CALM      30.09R FOG
JOHN DAY       DRIZZLE   52  50  93 SE8       30.22S
MEACHAM        RAIN      50  48  93 CALM      30.18R FOG
LA GRANDE      RAIN      53  50  89 S9        30.20S
BAKER CITY     CLOUDY    54  47  77 SE17      30.22S
BURNS          CLOUDY    43  42  97 CALM      30.25S FOG
ROME             N/A     45  42  89 CALM      30.26S
ONTARIO        CLOUDY    47  46  97 SW5       30.28S FOG
$$




USA.gov is the U.S. government's official web portal to all federal, state and local government web resources and services.